Main page
METAR-TAF:

METAR-TAF

Airports :

Jask, Iran

latitude: 26-38N, longitude: 057-46E, elevation: 3 m

Current weather observation

The report was made 2 hours and 3 minutes ago, at 00:00 UTC
Wind 6 kt from the North
Temperature 35°C
Humidity 39%
Pressure 994 hPa
Visibility: 4000 m
haze

METAR: OIZJ 290000Z 01006KT 4000 HZ NSC 35/19 Q0994

Time: 06:33 (02:03 UTC)


TAF: missing

Weather observations and forecasts of more than 4000 airports (METAR and TAF reports).

The available stations are represented by yellow and red dots on the map.

Hover mouse over dot to see the name of the station.

Then click to see weather observations and forecasts.

To change the map : click on the green buttons with a black cross to zoom in, on the green button with a dash to zoom out, or on the green arrows for adjacent maps.


METAR-TAF: